| time (UTC) | temp F | wind direction | speed MPH | gust MPH | rain 1hr in | rain 24hr in | rain mn in | humidity % | barometer mb |
| 20260504181150 | 56 | 281 | 4.0 | 14.0 | 0.00 | 0.03 | 0.00 | 32 | 1000.4 |
| 20260504175651 | 56 | 313 | 3.0 | 19.0 | 0.00 | 0.03 | 0.00 | 31 | 1000.3 |
| 20260504174150 | 56 | 273 | 4.0 | 14.0 | 0.00 | 0.03 | 0.00 | 30 | 1000.5 |
| 20260504172650 | 56 | 304 | 3.0 | 11.0 | 0.00 | 0.03 | 0.00 | 31 | 1000.4 |
| 20260504151146 | 52 | 18 | 7.0 | 18.0 | 0.00 | 0.03 | 0.00 | 31 | 1000.9 |
| 20260504141146 | 51 | 0 | 5.0 | 16.0 | 0.00 | 0.03 | 0.00 | 36 | 1001.4 |
| 20260504081119 | 34 | 333 | 0.0 | 0.0 | 0.00 | 0.03 | 0.00 | 78 | 1001.6 |
| 20260504045610 | 38 | 17 | 0.0 | 3.0 | 0.00 | 0.03 | 0.00 | 72 | 1002.0 |
| 20260504044109 | 38 | 13 | 1.0 | 7.0 | 0.00 | 0.03 | 0.00 | 71 | 1002.1 |
| 20260504042606 | 39 | 22 | 2.0 | 8.0 | 0.00 | 0.03 | 0.00 | 71 | 1002.1 |
| 20260504041056 | 39 | 32 | 2.0 | 9.0 | 0.00 | 0.03 | 0.00 | 69 | 1002.2 |
| 20260504040253 | 40 | 355 | 4.0 | 11.0 | 0.00 | 0.03 | 0.03 | 68 | 1002.3 |
| 20260504034057 | 40 | 0 | 5.0 | 13.0 | 0.00 | 0.03 | 0.03 | 67 | 1002.2 |
| 20260504032602 | 40 | 44 | 5.0 | 15.0 | 0.00 | 0.03 | 0.03 | 66 | 1002.2 |
| 20260504031056 | 41 | 20 | 6.0 | 13.0 | 0.00 | 0.03 | 0.03 | 66 | 1002.2 |
| 20260504025552 | 41 | 5 | 6.0 | 14.0 | 0.00 | 0.03 | 0.03 | 66 | 1002.1 |
| 20260504024747 | 42 | 336 | 7.0 | 13.0 | 0.00 | 0.03 | 0.03 | 67 | 1002.0 |
| 20260504023254 | 42 | 355 | 6.0 | 14.0 | 0.00 | 0.03 | 0.03 | 67 | 1002.1 |
| 20260504021052 | 42 | 355 | 6.0 | 15.0 | 0.00 | 0.03 | 0.03 | 66 | 1002.1 |
| 20260504015552 | 43 | 0 | 7.0 | 15.0 | 0.00 | 0.03 | 0.03 | 65 | 1002.2 |
| 20260504014052 | 43 | 355 | 7.0 | 15.0 | 0.00 | 0.03 | 0.03 | 65 | 1002.2 |
| 20260504011053 | 44 | 5 | 6.0 | 11.0 | 0.00 | 0.03 | 0.03 | 66 | 1002.1 |
| 20260504005554 | 45 | 5 | 5.0 | 12.0 | 0.00 | 0.03 | 0.03 | 69 | 1001.9 |
| 20260504004057 | 44 | 355 | 2.0 | 5.0 | 0.00 | 0.03 | 0.03 | 81 | 1001.8 |
| 20260504002552 | 44 | 355 | 1.0 | 5.0 | 0.00 | 0.03 | 0.03 | 84 | 1001.7 |
| 20260504001053 | 44 | 13 | 0.0 | 2.0 | 0.00 | 0.03 | 0.03 | 85 | 1001.6 |
| 20260503235551 | 44 | 13 | 0.0 | 1.0 | 0.00 | 0.03 | 0.03 | 84 | 1001.6 |
| 20260503234049 | 44 | 13 | 0.0 | 5.0 | 0.00 | 0.03 | 0.03 | 84 | 1001.5 |
| 20260503232549 | 45 | 62 | 0.0 | 5.0 | 0.00 | 0.03 | 0.03 | 83 | 1001.4 |
| 20260503231049 | 45 | 47 | 1.0 | 8.0 | 0.00 | 0.03 | 0.03 | 83 | 1001.4 |
| 20260503230243 | 45 | 0 | 2.0 | 8.0 | 0.00 | 0.03 | 0.03 | 83 | 1001.4 |
| 20260503224048 | 45 | 5 | 1.0 | 8.0 | 0.00 | 0.03 | 0.03 | 84 | 1001.5 |
| 20260503222549 | 45 | 16 | 2.0 | 7.0 | 0.00 | 0.03 | 0.03 | 85 | 1001.6 |
| 20260503221048 | 45 | 5 | 2.0 | 8.0 | 0.00 | 0.03 | 0.03 | 84 | 1001.7 |
| 20260503215548 | 45 | 350 | 1.0 | 6.0 | 0.00 | 0.03 | 0.03 | 84 | 1001.7 |
| 20260503214046 | 45 | 350 | 1.0 | 6.0 | 0.00 | 0.03 | 0.03 | 83 | 1001.8 |
| 20260503212542 | 44 | 341 | 1.0 | 6.0 | 0.00 | 0.03 | 0.03 | 86 | 1002.0 |
| 20260503211042 | 45 | 84 | 1.0 | 8.0 | 0.00 | 0.03 | 0.03 | 86 | 1002.2 |
| 20260503205542 | 45 | 350 | 1.0 | 9.0 | 0.00 | 0.03 | 0.03 | 86 | 1002.3 |
| 20260503204042 | 45 | 28 | 1.0 | 4.0 | 0.01 | 0.03 | 0.03 | 86 | 1002.4 |
| 20260503202541 | 45 | 55 | 0.0 | 3.0 | 0.03 | 0.03 | 0.03 | 85 | 1002.5 |
| 20260503201040 | 44 | 98 | 0.0 | 3.0 | 0.03 | 0.03 | 0.03 | 84 | 1002.6 |
| 20260503195540 | 44 | 80 | 0.0 | 6.0 | 0.03 | 0.03 | 0.03 | 85 | 1002.8 |
| 20260503194047 | 45 | 87 | 2.0 | 8.0 | 0.02 | 0.02 | 0.02 | 82 | 1002.8 |
| 20260503193233 | 49 | 350 | 2.0 | 9.0 | 0.00 | 0.00 | 0.00 | 70 | 1002.8 |
| 20260503191036 | 49 | 98 | 1.0 | 8.0 | 0.00 | 0.00 | 0.00 | 66 | 1002.7 |
| 20260503185537 | 49 | 75 | 2.0 | 6.0 | 0.00 | 0.00 | 0.00 | 67 | 1002.8 |
| 20260503184028 | 49 | 34 | 3.0 | 9.0 | 0.00 | 0.00 | 0.00 | 65 | 1002.9 |